Back to catalog

METEOR 2-5 DEB

AlivePO
NORAD 35506·DEBRIS·🇷🇺 Russia

Launched Oct 31, 1979 from Plesetsk Cosmodrome

Loading…

Next Passes (next 24 hours)

TLE

FreshSource: Space-Track

Epoch: Sep 11, 2026, 08:59 UTC

1 35506U 79095Z   26254.37450405  .00013945  00000-0  20265-2 0  9995
2 35506  81.1807 280.5234 0011132  97.0250 263.2224 14.75837511302324

Track METEOR 2-5 DEB in real time with AllMySat

Download on the App Store